Wetbulb
71.20 71.69 74.59 74.16 73.58 72.98 72.16 70.80 70.86 70.60 70.21 69.46 68.39 68.10 68.58 68.31 67.34 66.49 66.02 65.73 65.54 64.91 64.55 64.76 65.00 65.20 64.97 65.33 66.02 66.69 67.26 67.64 68.77 70.65 71.97 72.86 73.93 74.26 74.60 75.46 75.34 74.26 75.62
72.48 71.89 74.29 73.94 73.53 72.98 72.34 71.74 71.66 71.09 70.64 70.15 69.48 69.22 68.81 68.20 66.87 66.76 66.63 66.26 66.01 66.01 65.87 66.00 66.24 66.29 66.20 66.18 66.14 66.81 67.12 67.85 68.88 68.71 69.82 71.47 73.05 74.42 74.86 75.21 74.62 74.19 75.07
72.59 71.50 72.17 73.67 73.36 72.96 72.53 72.07 71.68 71.38 71.16 70.70 70.12 69.64 69.20 68.23 67.10 66.72 66.53 66.54 66.75 66.75 66.72 66.96 67.31 67.88 68.02 67.88 67.47 67.03 67.69 68.74 69.62 68.74 68.55 67.25 69.96 74.95 75.00 74.89 75.07 74.53 74.92
72.99 71.98 71.11 73.62 73.44 73.17 72.69 72.08 71.86 71.91 71.46 71.18 70.82 70.05 69.36 68.31 67.80 67.45 67.67 67.59 67.80 68.23 68.12 68.21 68.47 68.93 69.25 69.43 69.11 68.34 68.26 68.29 68.77 68.39 66.46 64.23 65.74 75.18 74.68 74.54 74.84 74.72 74.96
73.52 72.67 72.01 73.85 73.45 73.50 73.15 72.68 72.46 72.19 71.96 71.64 70.81 70.29 69.61 69.26 69.03 68.84 68.86 68.97 69.30 69.84 70.01 69.73 69.65 69.68 69.53 70.21 70.21 70.03 69.45 68.86 68.50 67.41 64.35 63.55 63.15 68.50 74.73 74.44 73.99 74.80 74.29
72.28 73.30 74.06 73.67 73.60 73.68 73.45 72.95 72.81 72.39 72.21 71.94 71.17 70.84 70.58 70.30 70.49 70.78 69.74 69.65 69.78 70.55 70.95 71.04 70.83 70.61 70.58 71.28 70.87 71.01 70.98 69.94 69.32 66.70 65.21 65.09 65.73 73.86 74.03 73.71 73.44 73.50 74.59
69.20 73.00 74.12 73.73 73.85 73.90 73.82 73.33 72.78 72.66 72.26 72.06 71.91 71.52 71.30 71.25 71.26 71.14 70.79 70.55 71.03 70.93 70.86 71.10 70.91 70.74 70.10 70.25 70.48 70.56 70.47 69.84 68.65 67.47 67.13 65.80 65.45 72.02 73.41 72.95 72.60 72.75 73.25
70.78 72.06 74.59 74.04 73.95 73.75 73.85 73.18 72.88 72.43 72.31 72.41 72.09 71.94 71.93 71.71 71.64 71.52 71.89 71.66 71.20 70.79 70.45 70.16 70.15 70.41 70.39 70.22 70.14 70.48 69.48 69.03 67.49 67.56 68.03 66.65 71.52 72.75 72.31 72.23 72.51 72.11 72.50
70.74 71.78 74.53 73.81 73.73 74.07 73.67 73.25 72.80 72.63 72.56 72.51 72.24 72.51 72.21 72.19 72.24 72.29 71.99 71.47 70.65 70.11 69.10 68.48 68.46 68.76 69.95 69.73 69.88 69.97 69.38 69.16 67.31 66.54 67.43 67.64 72.04 72.56 71.61 71.48 71.79 72.06 72.24
69.56 70.53 74.51 73.92 73.26 72.92 72.74 73.67 73.25 73.07 72.75 72.97 72.87 72.85 72.38 72.23 71.99 72.31 71.95 71.09 69.82 68.86 67.81 67.34 67.06 67.40 68.12 69.12 69.55 69.87 69.04 69.05 67.24 66.65 66.17 66.86 71.97 71.86 71.01 70.84 71.41 71.86 72.21
65.09 69.86 74.16 74.64 74.25 73.32 72.61 72.74 73.54 73.35 73.29 73.38 72.70 72.65 72.11 70.21 68.85 70.47 71.02 71.03 70.04 69.05 68.20 67.41 66.67 66.76 66.98 67.68 68.68 68.90 69.16 66.91 66.04 66.45 65.96 70.26 71.35 70.98 70.18 70.16 70.86 71.24 71.99
63.90 65.59 69.78 71.42 74.29 73.81 73.13 71.84 72.46 72.33 71.83 71.50 70.50 70.63 71.10 69.72 70.17 69.12 69.58 70.67 68.57 68.35 67.70 67.11 67.07 67.00 66.90 65.12 65.38 68.31 66.67 66.38 65.37 65.21 66.00 71.48 71.61 70.86 70.08 69.56 69.75 70.44 71.32
64.90 65.67 70.06 71.84 72.86 73.56 72.43 71.89 72.19 71.25 70.88 70.29 70.22 70.84 71.22 70.80 70.11 69.23 68.11 68.06 66.95 67.88 65.96 66.31 65.83 65.42 65.58 65.56 65.01 66.37 66.34 66.22 65.40 64.95 66.82 71.31 70.87 70.68 69.62 69.35 69.47 70.01 71.12
64.95 68.46 71.24 71.92 72.93 72.84 72.87 71.69 72.47 71.86 70.61 70.12 70.56 71.95 71.00 70.43 69.68 69.41 68.24 68.67 66.61 67.41 66.29 67.24 65.59 66.45 65.96 66.71 66.35 65.90 65.28 65.56 64.41 65.07 67.18 70.92 70.61 70.29 69.35 69.22 69.37 69.72 71.39
66.74 67.74 70.86 72.61 72.36 73.57 74.14 71.63 72.01 72.19 71.15 70.93 71.45 71.86 70.71 69.19 68.71 70.17 69.28 69.68 69.45 68.66 66.74 66.88 66.40 66.52 65.95 66.40 65.72 65.38 65.07 65.43 66.06 66.55 66.82 70.66 69.63 69.53 69.34 69.10 69.32 69.44 69.95
68.87 69.33 72.86 73.29 72.80 73.56 72.08 74.43 72.18 72.89 72.12 71.57 71.10 70.87 70.64 69.73 70.15 69.68 69.66 68.83 68.09 67.93 67.32 66.83 66.07 65.72 65.53 65.38 65.38 65.89 65.42 65.54 65.59 66.45 66.44 67.58 69.09 69.03 69.07 68.52 69.06 69.35 69.73
69.16 71.81 72.49 74.61 73.73 72.81 73.32 72.74 75.99 73.56 73.18 70.98 70.73 71.13 70.09 70.17 70.39 70.46 68.97 68.80 68.17 69.36 67.85 66.96 66.29 66.30 65.10 65.03 64.13 64.98 65.66 65.18 65.56 66.57 66.19 67.26 67.18 68.73 68.82 68.80 68.69 69.16 69.62
70.93 71.20 72.96 69.44 73.47 73.52 73.85 73.27 72.99 73.32 71.63 71.30 70.25 70.48 70.60 71.15 70.63 70.21 68.59 67.95 69.01 68.66 67.88 66.70 65.30 64.44 64.72 64.00 63.68 63.98 64.43 64.87 65.33 65.94 65.49 65.95 66.03 65.86 67.89 68.70 69.09 69.75 69.73
70.74 71.41 72.59 72.29 73.35 73.36 74.18 73.92 73.15 74.45 71.02 70.86 70.50 69.98 70.26 70.27 70.02 69.13 67.99 68.03 69.57 67.95 67.07 65.74 65.18 64.81 63.96 63.02 63.33 63.66 63.99 63.83 64.80 65.27 64.92 65.63 66.00 65.24 65.59 67.70 68.83 69.59 70.00
71.90 74.17 73.93 73.26 74.67 73.58 73.73 73.47 72.59 71.57 70.50 70.05 69.72 69.68 71.02 69.87 69.80 69.29 68.24 68.69 68.46 66.93 65.96 65.40 64.83 64.87 63.66 62.77 63.33 62.44 64.23 64.43 64.96 63.26 63.84 65.63 64.70 64.15 65.80 67.05 67.00 67.62 69.60
70.22 72.48 73.93 74.07 75.31 73.12 72.09 70.93 70.17 68.18 68.39 68.65 69.45 70.09 69.96 70.05 69.58 69.56 68.04 68.45 67.47 66.56 65.56 64.94 64.58 63.40 62.74 63.17 61.28 61.89 62.19 63.34 63.87 63.68 64.87 64.16 63.65 64.58 64.84 67.21 65.92 65.53 66.95
69.95 71.15 72.80 72.77 72.86 73.00 72.36 71.22 70.14 68.71 67.48 67.75 68.83 69.75 69.99 69.29 69.42 66.81 68.03 66.88 67.24 65.86 65.22 63.62 63.56 62.61 62.09 63.56 59.99 59.47 56.63 59.87 62.19 63.87 63.36 63.49 63.38 64.57 65.21 67.03 66.56 67.41 66.47
68.86 69.95 70.31 71.25 72.76 72.50 72.72 71.25 72.05 69.07 70.04 67.96 69.08 68.28 68.84 69.00 68.80 68.45 67.97 67.08 66.56 65.91 64.64 63.75 63.43 62.36 60.71 63.17 61.93 59.47 55.73 54.92 57.71 61.54 63.02 63.50 63.63 64.55 64.93 65.86 66.51 66.79 66.86
67.76 68.98 69.81 71.20 71.64 72.04 71.41 69.91 69.00 66.42 65.90 67.37 66.94 67.64 67.73 69.05 68.08 67.85 67.48 66.37 66.26 65.98 65.18 65.07 64.74 63.41 62.43 60.11 61.67 62.36 61.51 60.14 56.61 55.62 60.43 61.48 62.85 63.73 63.84 64.52 65.40 66.21 67.16
67.73 68.18 69.47 70.43 70.26 70.91 70.33 69.62 68.72 68.53 68.02 68.93 68.11 68.45 68.62 68.58 68.09 67.68 67.39 66.98 66.41 65.98 65.56 65.05 64.43 63.68 63.35 61.76 61.29 61.06 61.08 60.38 60.46 57.45 55.26 58.50 61.33 62.47 63.38 64.55 65.49 66.07 66.83
67.29 67.83 68.90 68.70 69.09 69.05 70.41 70.31 69.07 68.49 68.68 67.71 67.12 67.13 67.24 68.09 68.11 67.55 66.91 66.44 66.33 66.28 65.68 65.20 64.85 64.17 63.64 63.07 62.84 62.37 61.85 58.90 58.48 57.44 54.01 58.22 59.58 62.12 63.90 65.63 64.71 65.79 66.92
MSLP
1005.58 1006.55 1007.17 1007.66 1008.45 1008.97 1009.53 1009.93 1010.35 1010.86 1011.06 1011.49 1011.86 1012.16 1012.43 1012.65 1012.90 1013.15 1013.30 1013.48 1013.54 1013.67 1013.76 1013.84 1013.89 1014.04 1014.10 1014.07 1014.18 1014.19 1014.05 1014.22 1014.22 1014.09 1013.98 1013.82 1013.79 1013.72 1013.90 1014.10 1014.19 1014.27 1014.63
1004.94 1006.53 1007.16 1007.66 1008.39 1008.91 1009.48 1009.85 1010.23 1010.82 1011.03 1011.47 1011.88 1012.10 1012.40 1012.65 1012.95 1013.18 1013.32 1013.47 1013.63 1013.66 1013.71 1013.76 1013.87 1013.95 1013.94 1013.95 1014.02 1014.11 1014.14 1014.21 1014.25 1014.14 1013.98 1013.91 1013.69 1013.76 1013.93 1014.03 1014.23 1014.48 1014.79
1004.98 1006.39 1007.13 1007.55 1008.21 1008.77 1009.40 1009.82 1010.14 1010.61 1010.99 1011.47 1011.75 1012.10 1012.41 1012.63 1012.86 1013.21 1013.34 1013.38 1013.49 1013.66 1013.74 1013.74 1013.79 1013.93 1013.89 1013.85 1013.97 1013.95 1014.02 1014.02 1014.14 1014.15 1014.12 1013.97 1013.64 1013.38 1013.66 1013.98 1014.15 1014.52 1014.83
1004.90 1006.10 1006.72 1007.51 1008.09 1008.56 1009.19 1009.69 1009.98 1010.49 1010.79 1011.36 1011.74 1012.05 1012.42 1012.60 1012.75 1012.99 1013.31 1013.37 1013.39 1013.53 1013.55 1013.58 1013.57 1013.75 1013.79 1013.75 1013.73 1013.79 1013.91 1013.95 1014.05 1014.03 1014.02 1013.67 1013.28 1012.85 1013.22 1013.72 1013.94 1014.40 1014.70
1004.91 1006.00 1006.55 1007.38 1007.83 1008.31 1008.85 1009.41 1009.81 1010.25 1010.61 1011.12 1011.51 1011.82 1012.18 1012.49 1012.68 1012.83 1013.04 1013.16 1013.21 1013.27 1013.29 1013.23 1013.24 1013.45 1013.58 1013.63 1013.59 1013.67 1013.78 1013.89 1013.82 1013.87 1013.73 1013.36 1012.98 1012.67 1012.98 1013.52 1013.81 1014.08 1014.54
1004.25 1005.39 1006.41 1007.22 1007.60 1008.16 1008.63 1009.13 1009.67 1010.00 1010.30 1010.83 1011.17 1011.64 1011.95 1012.13 1012.40 1012.59 1012.79 1012.93 1013.01 1012.99 1012.95 1012.98 1013.05 1013.17 1013.31 1013.30 1013.40 1013.50 1013.65 1013.72 1013.71 1013.64 1013.30 1013.06 1012.78 1012.83 1013.02 1013.50 1013.76 1014.09 1014.40
1003.13 1004.25 1005.90 1006.92 1007.66 1008.12 1008.48 1008.83 1009.42 1009.87 1010.08 1010.52 1010.85 1011.27 1011.67 1011.84 1012.15 1012.33 1012.53 1012.62 1012.71 1012.73 1012.74 1012.74 1012.85 1012.96 1013.10 1013.15 1013.17 1013.31 1013.50 1013.57 1013.57 1013.31 1012.91 1012.69 1012.50 1012.46 1012.98 1013.37 1013.78 1014.13 1014.28
1002.88 1003.71 1005.33 1006.73 1007.53 1008.04 1008.31 1008.69 1009.08 1009.57 1009.90 1010.30 1010.56 1010.94 1011.29 1011.52 1011.80 1012.01 1012.20 1012.32 1012.42 1012.49 1012.58 1012.58 1012.69 1012.77 1012.91 1012.93 1013.00 1013.10 1013.29 1013.39 1013.26 1013.13 1012.84 1012.48 1012.47 1012.41 1012.82 1013.39 1013.78 1014.10 1014.25
1002.35 1002.99 1004.63 1006.04 1007.39 1008.05 1008.30 1008.47 1008.70 1009.15 1009.54 1010.00 1010.22 1010.59 1010.95 1011.27 1011.49 1011.71 1011.86 1012.00 1012.06 1012.19 1012.35 1012.46 1012.52 1012.58 1012.65 1012.73 1012.71 1012.81 1013.00 1013.15 1013.18 1012.98 1012.60 1012.33 1012.40 1012.20 1012.60 1013.17 1013.63 1014.00 1014.17
1001.45 1002.00 1003.61 1004.85 1005.92 1007.17 1008.07 1008.33 1008.60 1008.81 1009.27 1009.72 1009.97 1010.14 1010.51 1010.89 1011.08 1011.17 1011.32 1011.56 1011.74 1011.88 1012.03 1012.15 1012.22 1012.26 1012.31 1012.40 1012.49 1012.59 1012.69 1012.77 1012.79 1012.63 1012.41 1012.12 1011.97 1012.31 1012.39 1012.86 1013.37 1013.81 1014.05
1000.78 1001.16 1002.33 1003.71 1004.72 1005.67 1006.86 1007.86 1008.31 1008.37 1008.82 1009.32 1009.62 1009.89 1010.09 1010.35 1010.34 1010.31 1010.58 1010.89 1011.15 1011.48 1011.58 1011.70 1011.81 1011.93 1012.00 1012.02 1012.07 1012.19 1012.25 1012.33 1012.31 1012.12 1011.99 1011.65 1011.88 1012.36 1012.62 1012.93 1013.06 1013.62 1013.92
1000.34 1000.32 1000.92 1001.84 1003.20 1004.49 1005.40 1006.64 1007.78 1008.07 1008.18 1008.62 1008.94 1009.22 1009.53 1009.65 1009.64 1009.76 1010.07 1010.36 1010.68 1010.85 1011.16 1011.23 1011.35 1011.45 1011.64 1011.57 1011.22 1011.33 1011.68 1011.68 1011.73 1011.48 1011.26 1011.12 1011.57 1012.04 1012.34 1012.64 1012.96 1013.40 1013.81
999.86 999.92 999.88 1001.16 1002.13 1003.25 1004.35 1005.56 1006.71 1007.13 1007.50 1007.81 1008.07 1008.38 1008.69 1008.82 1008.94 1009.15 1009.37 1009.67 1009.99 1010.39 1010.56 1010.57 1010.84 1011.04 1011.00 1010.85 1010.57 1010.54 1010.95 1011.04 1011.15 1011.13 1010.69 1010.82 1011.28 1011.75 1012.03 1012.32 1012.77 1013.16 1013.58
999.43 999.49 999.66 1000.43 1001.48 1002.41 1003.36 1004.41 1005.71 1006.11 1006.63 1006.94 1007.17 1007.53 1008.00 1008.42 1008.67 1008.97 1009.08 1008.93 1009.45 1009.62 1009.98 1009.92 1010.26 1010.37 1010.61 1010.37 1010.25 1010.29 1010.41 1010.43 1010.51 1010.78 1010.44 1010.66 1011.08 1011.57 1011.79 1012.27 1012.51 1012.88 1013.31
999.23 999.43 999.39 1000.35 1001.02 1001.71 1002.47 1003.42 1004.42 1005.15 1005.64 1006.02 1006.31 1006.79 1007.34 1008.05 1008.38 1008.48 1008.73 1008.61 1008.64 1009.12 1009.43 1009.44 1009.63 1009.93 1010.11 1010.20 1010.16 1010.23 1010.29 1010.21 1010.12 1010.54 1010.23 1010.43 1010.88 1011.26 1011.51 1011.88 1012.30 1012.63 1013.04
998.76 999.04 999.21 1000.12 1000.68 1001.27 1001.99 1002.70 1003.69 1004.38 1004.83 1005.37 1005.73 1006.29 1006.96 1007.48 1007.92 1008.00 1008.33 1008.44 1008.52 1008.77 1008.96 1009.13 1009.44 1009.73 1009.96 1010.02 1010.10 1010.05 1010.12 1009.93 1009.89 1009.97 1010.33 1010.48 1010.70 1011.00 1011.38 1011.53 1012.04 1012.35 1012.73
998.35 998.54 998.83 999.50 1000.39 1001.07 1001.76 1002.39 1003.35 1003.97 1004.40 1004.96 1005.43 1005.94 1006.73 1007.19 1007.60 1007.80 1008.15 1008.17 1008.35 1008.63 1008.90 1009.18 1009.41 1009.69 1009.80 1009.84 1009.78 1009.72 1009.75 1009.82 1009.70 1009.77 1010.12 1010.28 1010.77 1010.83 1011.04 1011.38 1011.70 1012.02 1012.39
997.88 998.09 998.45 998.68 999.97 1001.02 1001.75 1002.43 1003.22 1003.79 1004.30 1004.84 1005.25 1005.73 1006.31 1006.87 1007.21 1007.63 1007.91 1008.03 1007.98 1008.38 1008.90 1009.19 1009.35 1009.37 1009.42 1009.43 1009.49 1009.42 1009.43 1009.56 1009.56 1009.57 1009.82 1009.92 1010.30 1010.29 1010.71 1011.12 1011.32 1011.60 1011.99
997.26 997.52 998.01 998.60 999.54 1000.58 1001.53 1002.28 1003.10 1003.68 1004.27 1004.76 1005.13 1005.62 1006.09 1006.56 1006.97 1007.41 1007.66 1007.76 1007.73 1008.35 1008.74 1008.97 1008.99 1009.12 1009.24 1009.25 1009.21 1009.19 1009.29 1009.43 1009.53 1009.54 1009.72 1009.79 1009.66 1009.87 1010.29 1010.52 1010.97 1011.34 1011.57
996.59 997.13 997.58 998.25 999.01 1000.28 1001.23 1002.10 1002.96 1003.66 1004.23 1004.74 1005.03 1005.40 1005.74 1006.09 1006.40 1006.82 1007.20 1007.43 1007.77 1008.22 1008.34 1008.58 1008.71 1008.80 1008.88 1009.03 1009.04 1009.11 1009.28 1009.22 1009.36 1009.40 1009.50 1009.38 1009.41 1009.28 1009.61 1009.94 1010.49 1010.93 1011.25
996.61 997.30 997.84 998.54 999.17 1000.20 1001.16 1001.92 1002.88 1003.58 1004.24 1004.65 1004.83 1005.14 1005.51 1005.80 1006.09 1006.51 1006.94 1007.20 1007.57 1007.87 1007.97 1008.09 1008.32 1008.64 1008.70 1008.69 1009.00 1009.03 1009.21 1009.16 1009.20 1009.07 1008.89 1009.09 1008.97 1009.04 1009.18 1009.50 1010.02 1010.47 1010.81
996.80 997.50 998.23 998.80 999.40 1000.25 1000.98 1001.82 1002.58 1003.35 1004.02 1004.36 1004.54 1004.79 1005.15 1005.56 1005.95 1006.13 1006.52 1006.96 1007.39 1007.64 1007.60 1007.47 1007.97 1008.17 1008.21 1008.20 1008.66 1008.98 1009.27 1009.27 1009.06 1008.96 1008.77 1008.66 1008.57 1008.60 1008.84 1008.92 1009.63 1009.79 1010.17
997.00 997.90 998.71 999.31 999.73 1000.36 1000.99 1001.83 1002.51 1003.14 1003.50 1003.97 1004.21 1004.62 1004.84 1005.26 1005.66 1005.95 1006.33 1006.71 1007.07 1007.29 1007.27 1007.16 1007.54 1007.89 1008.04 1007.99 1008.29 1008.67 1008.91 1008.67 1008.63 1008.49 1008.59 1008.46 1008.39 1008.32 1008.99 1008.95 1009.00 1009.22 1009.72
997.24 998.24 999.15 999.70 1000.19 1000.64 1001.16 1001.96 1002.47 1003.03 1003.46 1003.72 1004.07 1004.47 1004.70 1005.18 1005.47 1005.84 1006.22 1006.50 1006.66 1006.83 1006.98 1007.12 1007.24 1007.47 1007.77 1007.96 1008.24 1008.33 1008.21 1008.12 1008.26 1008.27 1008.27 1008.68 1008.40 1008.55 1008.86 1009.18 1009.36 1009.40 1009.59
997.39 998.38 999.47 1000.15 1000.62 1000.92 1001.49 1002.02 1002.62 1003.13 1003.35 1003.56 1003.80 1004.33 1004.76 1005.24 1005.53 1005.71 1005.95 1006.15 1006.35 1006.59 1006.76 1006.87 1006.99 1007.18 1007.38 1007.60 1007.69 1007.76 1007.96 1008.04 1007.99 1008.17 1008.36 1008.66 1008.96 1009.15 1009.19 1009.37 1009.46 1009.59 1009.68
997.56 998.69 999.86 1000.50 1000.87 1001.28 1001.86 1002.23 1002.85 1003.15 1003.32 1003.58 1003.94 1004.50 1004.98 1005.38 1005.60 1005.73 1005.74 1005.94 1006.23 1006.40 1006.43 1006.53 1006.64 1006.79 1007.02 1007.24 1007.38 1007.45 1007.45 1007.51 1007.49 1008.63 1008.72 1008.68 1009.26 1009.86 1009.86 1009.92 1009.55 1009.67 1009.74
Wind_Speed
13 18 21 20 19 18 17 17 15 14 13 12 11 10 9 9 9 8 7 6 5 4 2 2 1 1 1 2 3 4 4 5 6 7 9 9 9 5 1 4 7 7 11
19 18 21 20 19 18 17 16 16 14 13 12 11 10 9 8 8 7 7 6 4 3 2 1 1 2 2 3 4 4 4 5 6 7 9 11 10 7 6 7 6 3 10
18 17 19 21 20 19 17 16 16 15 14 12 11 10 9 8 7 6 5 5 4 4 3 3 3 4 5 4 5 5 5 5 6 7 9 6 9 12 10 9 7 6 10
19 16 17 21 20 20 18 17 17 16 15 13 11 10 9 8 7 6 5 5 5 5 5 5 5 6 7 7 6 6 6 7 7 8 6 8 9 12 13 12 9 8 10
16 15 15 22 21 21 20 18 17 17 16 14 13 11 10 9 7 6 6 6 7 8 8 8 8 9 9 9 9 7 7 8 9 9 7 8 7 9 13 8 8 8 11
17 16 16 22 21 20 20 19 18 18 17 15 14 11 10 9 8 7 7 8 9 10 11 11 11 10 10 10 9 9 8 8 8 8 7 8 8 9 8 5 5 7 10
15 18 20 24 20 20 20 20 18 17 17 16 14 13 11 9 8 7 8 10 10 10 12 12 12 11 11 10 8 6 7 8 7 8 8 7 6 9 10 7 3 7 9
5 13 18 23 22 19 18 19 18 17 16 16 14 13 11 9 8 8 10 12 10 10 10 9 9 9 9 8 10 8 6 8 9 8 9 7 8 14 12 8 4 3 6
8 14 16 17 17 19 17 18 18 17 16 15 14 12 10 9 8 8 9 9 10 9 10 10 11 11 10 10 9 8 8 10 7 6 10 5 12 15 14 10 5 2 6
14 13 19 18 17 15 13 17 17 17 16 15 14 13 11 9 8 10 12 11 13 12 10 9 10 12 11 10 10 10 11 12 7 8 7 6 9 14 15 12 7 2 6
8 11 21 19 18 16 14 14 16 18 16 15 13 12 9 6 8 10 14 12 10 13 12 12 11 12 12 12 13 14 16 6 8 7 7 7 12 11 10 10 9 3 5
12 9 16 19 19 17 13 13 14 12 10 10 10 10 8 8 6 9 5 13 15 16 13 13 14 14 12 6 7 19 7 9 8 7 6 12 16 15 14 11 8 4 4
10 10 6 13 15 18 13 10 8 8 8 8 12 10 9 7 6 5 4 7 7 12 6 10 9 7 9 7 6 4 9 9 6 7 9 15 16 15 12 10 9 6 4
9 7 6 17 13 14 11 10 11 10 10 9 11 11 7 4 3 3 3 3 6 4 7 4 5 6 7 5 4 5 4 4 3 4 5 15 15 14 12 11 9 8 6
5 8 7 16 13 12 9 9 10 10 10 10 9 10 7 5 4 4 5 3 1 1 5 4 3 1 1 4 4 5 6 6 5 5 1 15 15 13 14 12 11 10 10
5 7 5 15 13 13 12 7 7 7 9 9 6 7 8 5 4 3 3 4 3 2 4 2 3 3 3 4 5 5 5 5 5 4 2 5 13 13 13 13 13 12 12
5 6 6 9 13 13 12 11 4 5 4 5 4 7 9 7 4 3 3 2 3 3 3 3 3 5 4 4 6 6 4 6 6 4 4 5 7 14 14 14 15 14 14
7 6 8 7 15 13 10 8 6 5 5 5 5 5 7 7 5 3 4 4 4 4 3 3 4 4 5 4 3 4 3 5 5 5 1 5 6 5 11 16 16 16 15
8 8 8 9 15 14 11 8 8 5 5 3 4 5 8 7 7 6 4 4 2 2 3 4 4 5 4 4 4 3 3 4 4 3 7 9 4 5 7 16 17 16 16
7 6 7 7 11 15 10 7 6 4 4 4 4 4 7 6 7 6 4 5 2 4 5 5 5 4 4 4 5 2 4 4 4 6 9 4 7 6 4 8 10 10 17
6 2 6 7 9 11 9 9 7 6 4 3 4 6 6 4 4 2 4 2 3 4 6 6 4 5 4 3 1 2 3 5 5 5 4 5 6 7 7 6 6 5 8
7 5 6 7 8 9 7 7 6 5 6 6 5 6 6 5 5 5 4 3 4 4 7 7 5 4 5 4 4 2 2 3 4 6 5 5 7 5 7 6 9 10 9
8 7 6 6 8 8 8 5 3 5 4 4 3 3 5 4 2 2 2 2 4 4 5 5 4 5 4 3 7 4 3 4 3 4 7 4 6 3 5 3 4 4 6
10 9 8 8 10 8 9 6 6 4 3 3 4 3 4 5 2 4 3 5 5 3 4 4 4 5 4 4 2 6 8 3 3 3 3 5 1 3 3 1 4 3 5
12 11 9 10 10 7 7 7 5 4 4 3 2 7 4 5 3 3 2 3 3 3 3 4 4 5 4 4 5 3 7 6 7 2 4 3 1 1 0 1 4 4 5
12 12 11 12 9 9 5 8 7 6 4 3 3 4 3 2 1 3 4 4 3 4 4 3 4 5 5 5 4 5 4 3 3 4 5 4 5 2 3 3 3 2 4
Wind_Direction
137 150 155 152 152 152 157 156 154 154 149 150 152 148 143 140 138 139 133 128 126 118 101 86 82 39 327 328 321 324 330 311 315 320 322 327 322 321 166 208 190 191 146
136 155 159 153 157 158 160 161 158 157 153 157 160 157 155 152 151 152 151 152 155 156 160 205 289 283 282 287 293 298 303 308 303 306 309 309 279 254 225 210 231 151 161
136 156 163 159 163 163 164 165 162 161 158 165 168 167 168 164 165 169 172 178 184 201 214 222 247 275 273 263 271 275 280 284 291 294 292 282 276 210 206 215 218 178 172
138 154 166 166 167 166 168 170 167 168 165 171 174 175 179 177 179 187 204 214 221 234 244 252 251 250 257 259 254 260 268 273 274 285 282 260 247 203 199 207 211 193 186
136 153 169 171 170 171 173 172 172 173 170 174 180 181 187 192 197 206 223 237 245 250 257 257 261 266 261 242 252 254 256 266 276 278 270 264 267 256 188 203 206 198 189
148 159 163 173 175 176 175 174 179 177 175 179 181 187 196 202 213 220 235 247 251 259 261 265 264 263 262 267 249 252 257 261 272 271 251 255 267 112 130 160 224 230 189
167 163 157 170 180 180 180 177 182 183 179 183 183 189 201 208 223 233 248 252 254 262 270 271 280 286 275 269 271 265 244 255 269 277 285 252 258 138 112 117 158 240 216
211 150 154 169 175 184 185 184 183 186 185 188 187 194 201 207 223 245 255 259 252 266 273 275 276 279 273 266 261 249 250 250 269 251 257 275 134 133 127 120 125 242 223
213 152 147 162 175 182 191 192 186 188 189 192 189 194 200 213 230 250 269 246 244 251 260 270 273 271 266 261 248 244 243 252 256 273 279 273 168 154 145 137 133 208 224
194 170 150 158 170 181 194 197 194 189 193 192 193 193 197 216 236 244 233 233 238 234 239 251 264 266 264 261 249 245 240 242 246 255 261 261 167 151 140 141 141 207 221
291 195 155 163 168 175 189 196 197 193 191 194 196 201 193 218 237 230 222 224 221 226 227 235 244 251 252 252 246 237 232 227 234 229 240 226 154 154 143 152 144 150 209
279 278 180 170 163 168 181 188 192 199 194 192 197 198 201 219 212 236 128 173 196 212 225 237 238 243 249 248 235 227 217 222 239 248 229 206 158 162 161 157 151 163 195
298 295 193 165 162 165 180 171 181 194 193 196 200 203 196 210 200 209 217 199 194 210 215 222 228 225 229 227 246 140 201 219 212 235 258 158 160 167 161 157 169 181 199
290 296 247 164 158 173 170 170 180 188 188 195 200 198 193 185 203 238 261 260 177 199 204 242 196 210 233 253 288 316 241 197 237 256 217 164 159 165 160 176 177 193 207
292 292 273 160 165 169 171 177 179 191 187 194 191 188 172 187 218 210 216 225 97 145 207 200 206 296 240 245 242 251 271 263 223 221 112 156 162 166 173 180 190 198 212
264 253 258 157 172 169 181 176 179 180 181 187 171 161 175 185 212 223 221 213 194 235 287 282 211 221 252 237 245 244 249 258 266 183 146 199 170 172 184 184 196 201 210
253 227 204 147 166 174 179 182 181 182 177 170 153 161 170 185 219 238 258 251 187 192 290 291 260 243 236 252 238 224 205 234 261 253 211 164 181 185 190 193 197 203 209
237 214 195 187 163 170 174 180 194 183 174 157 159 162 168 168 195 219 224 224 211 160 210 240 244 246 240 240 268 229 212 214 251 250 257 244 179 198 196 203 202 200 205
220 193 182 179 162 167 163 170 189 163 162 204 164 166 168 178 196 202 229 263 151 203 229 227 220 221 245 248 232 225 256 249 241 238 196 228 234 205 189 203 204 206 203
208 182 175 159 147 161 160 160 175 166 163 187 185 178 170 182 199 204 209 224 186 222 228 228 219 253 246 243 258 214 209 261 212 197 227 218 242 235 204 183 195 203 205
111 138 147 144 131 149 159 167 173 184 164 224 184 186 184 181 216 165 232 238 222 226 234 240 226 233 255 214 229 252 250 251 268 260 203 223 210 204 215 158 166 194 203
129 117 105 128 138 154 152 164 171 173 180 202 188 185 175 180 217 226 185 255 220 232 244 239 211 229 236 203 203 193 226 237 246 245 248 230 219 193 194 185 185 198 190
128 132 145 153 153 147 143 149 161 170 171 181 167 141 184 177 179 157 224 239 237 234 257 258 217 214 226 225 209 177 194 223 167 212 226 248 220 163 171 174 238 258 135
133 138 149 148 144 154 140 172 150 153 172 174 197 111 103 168 158 144 197 232 228 220 230 226 213 219 206 226 211 226 257 257 176 201 221 232 211 153 169 221 249 265 170
132 136 142 139 151 157 153 139 141 186 181 169 122 111 110 71 25 317 253 239 217 212 246 224 219 209 208 225 217 205 223 251 245 254 169 184 70 333 160 242 221 216 178
134 133 138 149 164 136 170 138 172 200 50 81 125 111 121 105 357 258 239 208 209 209 230 226 214 212 206 212 230 221 231 206 246 81 239 178 130 62 59 33 3 90 139